CST,Max TemperatureF,Mean TemperatureF,Min TemperatureF,Max Dew PointF,MeanDew PointF,Min DewpointF,Max Humidity, Mean Humidity, Min Humidity, Max Sea Level PressureIn, Mean Sea Level PressureIn, Min Sea Level PressureIn, Max VisibilityMiles, Mean VisibilityMiles, Min VisibilityMiles, Max Wind SpeedMPH, Mean Wind SpeedMPH, Max Gust SpeedMPH,PrecipitationIn, CloudCover, Events, WindDirDegrees
2013-11-1,53,45,37,37,35,32,87,73,50,29.90,29.67,29.48,10,9,7,23,12,33,0.00,6,,300
2013-11-2,51,42,33,36,33,30,93,70,44,30.10,30.04,29.91,10,10,10,18,11,24,0.00,2,,285
2013-11-3,55,45,35,34,30,25,87,59,31,30.06,29.91,29.78,10,10,10,32,15,44,0.00,0,,163
2013-11-4,50,41,32,41,34,27,87,72,54,30.16,29.93,29.78,10,10,7,21,14,28,0.01,3,Rain,227
2013-11-5,37,32,28,32,29,23,100,87,75,30.21,30.10,29.98,10,7,0,22,6,26,0.02,5,Rain-Snow,14
2013-11-6,35,30,26,30,25,21,93,79,60,30.19,30.12,30.02,10,9,2,20,10,29,0.01,3,Snow,282
2013-11-7,35,32,28,28,26,23,93,80,60,30.28,30.23,30.18,10,8,0,15,10,20,0.00,3,Fog,259
2013-11-8,48,37,26,37,30,21,80,69,57,30.20,29.87,29.63,10,10,10,28,13,37,0.05,2,,194
2013-11-9,46,39,32,37,32,25,81,70,57,30.29,30.02,29.74,10,10,10,25,16,36,0.00,3,,288
2013-11-10,39,32,24,32,27,21,87,78,65,30.36,30.25,30.08,10,10,10,13,8,,0.00,3,,230
2013-11-11,37,24,10,32,16,5,93,76,63,30.71,30.43,30.10,10,9,0,24,14,32,0.00,5,Snow,338
2013-11-12,28,16,5,14,8,1,85,67,51,30.78,30.66,30.44,10,10,10,17,8,23,0.00,0,,249
2013-11-13,51,38,26,30,24,12,70,57,44,30.43,30.10,29.90,10,10,10,26,18,34,0.00,0,,215
2013-11-14,55,44,32,37,33,28,93,74,47,29.90,29.85,29.80,10,10,7,16,10,20,0.00,2,Rain,246
2013-11-15,55,44,32,37,33,28,93,73,47,29.85,29.76,29.59,10,10,7,18,8,25,0.00,0,,186
2013-11-16,57,47,37,50,39,28,93,79,57,29.58,29.38,29.22,10,7,1,18,12,24,0.00,3,,182
2013-11-17,48,42,35,36,33,30,87,74,57,29.92,29.56,29.34,10,10,5,26,12,36,0.00,4,,297
2013-11-18,42,34,26,28,25,21,80,70,49,30.22,30.12,29.92,10,10,10,21,14,30,0.00,2,,312
2013-11-19,53,42,30,32,28,23,80,60,38,30.20,29.99,29.85,10,10,10,26,16,37,0.00,1,,159
2013-11-20,50,41,30,32,30,28,93,65,50,29.99,29.86,29.81,10,10,2,21,16,29,0.00,2,,157
2013-11-21,32,24,17,32,18,10,100,80,64,30.52,30.28,30.00,10,7,2,28,16,36,0.00,8,Snow,335
2013-11-22,32,19,6,12,7,0,79,58,30,30.63,30.55,30.48,10,10,10,23,13,32,0.00,1,,297
2013-11-23,17,11,5,5,1,0,85,68,49,30.82,30.74,30.64,10,10,10,20,12,26,0.00,0,,328
2013-11-24,33,20,6,18,10,0,79,60,44,30.66,30.32,30.02,10,10,10,28,14,34,0.00,0,,199
2013-11-25,42,36,30,27,22,18,80,62,45,30.12,30.04,29.96,10,10,10,23,17,34,0.00,4,,282
2013-11-26,32,22,10,21,9,3,79,57,37,30.37,30.26,30.12,10,10,10,32,19,43,0.00,3,,331
2013-11-27,28,16,5,10,7,1,85,67,40,30.36,30.17,29.97,10,10,10,17,8,28,0.00,0,,181
2013-11-28,28,20,12,16,10,5,86,66,47,30.45,30.28,29.98,10,10,10,25,10,31,0.00,1,,322
2013-11-29,33,20,8,23,15,3,79,68,52,30.46,30.29,30.07,10,10,10,21,8,26,0.00,0,,172
2013-11-30,44,36,28,28,24,21,80,69,49,30.15,30.06,30.01,10,10,10,15,10,18,0.00,0,,294